Regional Weather Roundup
Issued by NWS Cleveland, OH

Home | Current Version | Previous Version | Text Only | Print | Product List | Glossary Off
Versions: 1 2 3 4 5 6 7 8 9 10 11 12 13 14 15 16 17 18 19 20 21 22 23 24 25 26 27 28 29 30 31 32 33 34 35 36 37 38 39 40 41 42 43 44 45 46 47 48 49 50

000
ASUS41 KCLE 290410
RWRCLE
OHIO REGIONAL WEATHER ROUNDUP
NATIONAL WEATHER SERVICE WILMINGTON, OH
1200 AM EDT TUE JUL 29 2014

NOTE: "FAIR" INDICATES FEW OR NO CLOUDS BELOW 12,000 FEET WITH NO
SIGNIFICANT WEATHER AND/OR OBSTRUCTIONS TO VISIBILITY.

OHZ001>008-015>018-024>027-034-035-043-044-290500-
   NORTHWEST OHIO

CITY           SKY/WX    TMP DP  RH WIND       PRES   REMARKS
DEFIANCE       PTCLDY    58  53  84 N8        30.01F
FINDLAY        MOCLDY    63  51  65 N9        29.98S
TOLEDO EXPRESS PTCLDY    58  49  72 N8        30.01S
TOLEDO METCALF PTCLDY    60  49  66 N9        30.01S
LIMA           CLOUDY    58  52  80 NW10      30.00F
$$

OHZ009>014-019>023-028>033-038-089-290500-
   NORTHEAST OHIO

CITY           SKY/WX    TMP DP  RH WIND       PRES   REMARKS
CLE-HOPKINS    CLOUDY    60  47  61 N13       29.99F
CLE-LAKEFRONT  MOCLDY    61  49  64 N17       29.96F
CUY CO. ARPT   NOT AVBL
LORAIN-ELYRIA  CLOUDY    63  48  58 N9        29.98F
ASHTABULA      CLOUDY    56  46  69 NW3       29.95F
AKRON-CANTON   MOCLDY    58  48  69 N8        29.97S
WOOSTER        CLOUDY    59  51  75 N7        29.99S
MANSFIELD      CLOUDY    59  54  83 N5        29.99S
YOUNGSTOWN     MOCLDY    54  48  80 W5        29.96S
$$

OHZ042-051>053-060>062-070>072-077>081-290500-
  SOUTHWEST OHIO

CITY           SKY/WX    TMP DP  RH WIND       PRES   REMARKS
CINC-COVINGTON CLEAR     59  51  75 NW6       30.02S
CINC-LUNKEN    CLEAR     61  53  75 NW5       30.01F
HAMILTON       CLEAR     57  52  83 N3        30.02F
DAYTON         CLEAR     57  51  80 NW9       30.01F
WRIGHT-PAT AFB CLEAR     59  53  80 NW8       30.00F
DAYTON GENERAL CLEAR     59  53  80 NW6       30.00F
WILMINGTON     CLEAR     59  52  77 NW10      30.00S
$$

OHZ036-037-039>041-045>050-054>059-063>069-073>076-082>088-290500-
  CENTRAL AND SOUTHEAST OHIO

CITY           SKY/WX    TMP DP  RH WIND       PRES   REMARKS
COLUMBUS       CLOUDY    66  57  72 N9        29.96R
OSU AIRPORT    CLOUDY    64  56  75 NW10      29.97S
BOLTON FIELD   PTCLDY    60  56  86 NW8       29.98S
RICKENBACK AFB CLOUDY    66  53  64 NW12      29.96S
NEWARK         CLOUDY    61  57  87 CALM      29.96S
MARION         CLOUDY    62  56  80 N3        29.98S
LANCASTER      CLOUDY    61  58  90 CALM      29.96S
ZANESVILLE     MOCLDY    59  54  83 CALM      29.96S
NEW PHILLY     MOCLDY    57  55  93 CALM      29.97S
$$



USA.gov is the U.S. government's official web portal to all federal, state and local government web resources and services.